| time (UTC) | temp F | wind direction | speed MPH | gust MPH | rain 1hr in | rain 24hr in | rain mn in | humidity % | barometer mb |
| 20260905221542 | 89 | 115 | 0.0 | 0.0 | 0.00 | 0.37 | 0.36 | 68 | 1011.8 |
| 20260905220012 | 89 | 115 | 0.0 | 0.0 | 0.00 | 0.37 | 0.36 | 66 | 1011.7 |
| 20260905214527 | 90 | 101 | 0.0 | 0.0 | 0.00 | 0.37 | 0.36 | 62 | 1011.8 |
| 20260905213028 | 91 | 58 | 0.0 | 0.0 | 0.00 | 0.37 | 0.36 | 61 | 1012.0 |
| 20260905211537 | 91 | 113 | 0.0 | 0.0 | 0.00 | 0.37 | 0.36 | 61 | 1011.8 |
| 20260905210039 | 91 | 103 | 0.0 | 0.0 | 0.00 | 0.37 | 0.36 | 62 | 1012.0 |
| 20260905204525 | 91 | 100 | 0.0 | 0.0 | 0.00 | 0.37 | 0.36 | 61 | 1012.2 |
| 20260905203009 | 90 | 128 | 0.0 | 0.0 | 0.00 | 0.37 | 0.36 | 66 | 1012.5 |
| 20260905201508 | 89 | 259 | 0.0 | 0.0 | 0.00 | 0.37 | 0.36 | 69 | 1012.5 |
| 20260905200010 | 88 | 110 | 0.0 | 0.0 | 0.00 | 0.37 | 0.36 | 70 | 1012.8 |
| 20260905194510 | 88 | 69 | 0.0 | 0.0 | 0.00 | 0.37 | 0.36 | 74 | 1012.8 |
| 20260905193010 | 87 | 69 | 0.0 | 0.0 | 0.00 | 0.37 | 0.36 | 74 | 1012.7 |
| 20260905191509 | 87 | 103 | 0.0 | 0.0 | 0.00 | 0.37 | 0.36 | 74 | 1013.2 |
| 20260905190007 | 87 | 179 | 0.0 | 0.0 | 0.00 | 0.37 | 0.36 | 76 | 1013.5 |
| 20260905184509 | 85 | 67 | 0.0 | 0.0 | 0.00 | 0.37 | 0.36 | 79 | 1013.6 |
| 20260905183009 | 83 | 67 | 0.0 | 0.0 | 0.00 | 0.37 | 0.36 | 81 | 1013.9 |
| 20260905181513 | 82 | 67 | 0.0 | 0.0 | 0.01 | 0.37 | 0.36 | 81 | 1013.9 |
| 20260905180014 | 81 | 67 | 0.0 | 0.0 | 0.01 | 0.37 | 0.36 | 78 | 1014.2 |
| 20260905174512 | 80 | 67 | 0.0 | 0.0 | 0.01 | 0.37 | 0.36 | 79 | 1014.5 |
| 20260905173012 | 79 | 1 | 0.0 | 0.0 | 0.02 | 0.37 | 0.36 | 77 | 1014.9 |
| 20260905171515 | 79 | 1 | 0.0 | 0.0 | 0.12 | 0.36 | 0.35 | 78 | 1015.0 |
| 20260905170012 | 79 | 1 | 0.0 | 0.0 | 0.15 | 0.36 | 0.35 | 79 | 1015.0 |
| 20260905164514 | 78 | 11 | 0.0 | 0.0 | 0.21 | 0.36 | 0.35 | 78 | 1014.8 |
| 20260905163013 | 78 | 59 | 0.0 | 0.0 | 0.33 | 0.35 | 0.34 | 80 | 1014.8 |
| 20260905161514 | 80 | 70 | 2.0 | 4.0 | 0.22 | 0.24 | 0.23 | 80 | 1014.9 |
| 20260905160013 | 82 | 79 | 0.0 | 0.0 | 0.19 | 0.21 | 0.20 | 79 | 1014.7 |
| 20260905154518 | 85 | 27 | 0.0 | 0.0 | 0.13 | 0.15 | 0.14 | 77 | 1014.7 |
| 20260905153016 | 91 | 218 | 0.0 | 0.0 | 0.00 | 0.02 | 0.01 | 70 | 1014.5 |
| 20260905151514 | 89 | 16 | 0.0 | 0.0 | 0.00 | 0.02 | 0.01 | 69 | 1014.6 |
| 20260905150016 | 90 | 11 | 0.0 | 0.0 | 0.00 | 0.02 | 0.01 | 70 | 1014.4 |
| 20260905144517 | 91 | 333 | 0.0 | 0.0 | 0.00 | 0.02 | 0.01 | 70 | 1014.4 |
| 20260905143025 | 89 | 184 | 0.0 | 0.0 | 0.00 | 0.02 | 0.01 | 73 | 1014.5 |
| 20260905141519 | 89 | 153 | 0.0 | 0.0 | 0.01 | 0.02 | 0.01 | 75 | 1014.4 |
| 20260905140020 | 87 | 86 | 0.0 | 0.0 | 0.01 | 0.02 | 0.01 | 78 | 1014.3 |
| 20260905134519 | 83 | 115 | 0.0 | 0.0 | 0.01 | 0.02 | 0.01 | 76 | 1014.1 |
| 20260905133020 | 80 | 115 | 0.0 | 0.0 | 0.01 | 0.02 | 0.01 | 64 | 1014.4 |
| 20260905131522 | 78 | 115 | 0.0 | 0.0 | 0.00 | 0.01 | 0.00 | 64 | 1014.2 |
| 20260905130023 | 0 | 0.0 | 0.0 | 0.00 | 0.01 | 0.00 | 1014.0 | ||
| 20260905124524 | 0 | 0.0 | 0.0 | 0.00 | 0.01 | 0.00 | 1013.8 | ||
| 20260905123021 | 0 | 0.0 | 0.0 | 0.00 | 0.01 | 0.00 | 1013.7 | ||
| 20260905121526 | 0 | 0.0 | 0.0 | 0.00 | 0.01 | 0.00 | 1013.7 | ||
| 20260905120027 | 0 | 0.0 | 0.0 | 0.00 | 0.01 | 0.00 | 1013.3 | ||
| 20260905114524 | 0 | 0.0 | 0.0 | 0.00 | 0.01 | 0.00 | 1013.3 | ||
| 20260905113029 | 0 | 0.0 | 0.0 | 0.00 | 0.01 | 0.00 | 1013.2 | ||
| 20260905111526 | 0 | 0.0 | 0.0 | 0.00 | 0.01 | 0.00 | 1013.0 | ||
| 20260905110026 | 0 | 0.0 | 0.0 | 0.00 | 0.01 | 0.00 | 1012.8 | ||
| 20260905104528 | 0 | 0.0 | 0.0 | 0.00 | 0.01 | 0.00 | 1012.9 | ||
| 20260905103023 | 0 | 0.0 | 0.0 | 0.00 | 0.01 | 0.00 | 1012.8 | ||
| 20260905101529 | 0 | 0.0 | 0.0 | 0.00 | 0.01 | 0.00 | 1012.8 | ||
| 20260905100031 | 0 | 0.0 | 0.0 | 0.00 | 0.01 | 0.00 | 1013.0 | ||
| 20260905094526 | 0 | 0.0 | 0.0 | 0.00 | 0.01 | 0.00 | 1012.9 | ||
| 20260905093027 | 0 | 0.0 | 0.0 | 0.00 | 0.01 | 0.00 | 1012.9 | ||
| 20260905091525 | 0 | 0.0 | 0.0 | 0.00 | 0.01 | 0.00 | 1012.8 | ||
| 20260905090015 | 77 | 115 | 0.0 | 0.0 | 0.00 | 0.01 | 0.00 | 67 | 1012.8 |
| 20260905084523 | 76 | 115 | 0.0 | 0.0 | 0.00 | 0.01 | 0.00 | 68 | 1012.5 |
| 20260905083029 | 77 | 115 | 0.0 | 0.0 | 0.00 | 0.01 | 0.00 | 68 | 1012.6 |
| 20260905081527 | 77 | 115 | 0.0 | 0.0 | 0.00 | 0.01 | 0.00 | 69 | 1012.5 |
| 20260905080020 | 77 | 115 | 0.0 | 0.0 | 0.00 | 0.01 | 0.00 | 69 | 1012.7 |
| 20260905074516 | 77 | 115 | 0.0 | 0.0 | 0.00 | 0.01 | 0.00 | 69 | 1012.7 |
| 20260905073032 | 77 | 115 | 0.0 | 0.0 | 0.00 | 0.01 | 0.00 | 71 | 1012.8 |
| 20260905071534 | 77 | 115 | 0.0 | 0.0 | 0.00 | 0.01 | 0.00 | 71 | 1013.0 |
| 20260905070058 | 78 | 115 | 0.0 | 0.0 | 0.00 | 0.01 | 0.00 | 71 | 1013.1 |
| 20260905064514 | 78 | 115 | 0.0 | 0.0 | 0.00 | 0.01 | 0.00 | 72 | 1013.3 |
| 20260905063018 | 77 | 115 | 0.0 | 0.0 | 0.00 | 0.01 | 0.00 | 75 | 1013.3 |
| 20260905061526 | 78 | 115 | 0.0 | 0.0 | 0.00 | 0.01 | 0.00 | 76 | 1013.5 |
| 20260905060028 | 79 | 115 | 0.0 | 0.0 | 0.00 | 0.01 | 0.00 | 76 | 1013.3 |
| 20260905054544 | 79 | 115 | 0.0 | 0.0 | 0.00 | 0.01 | 0.00 | 79 | 1013.5 |
| 20260905053014 | 80 | 115 | 0.0 | 0.0 | 0.00 | 0.01 | 0.00 | 78 | 1013.4 |
| 20260905051536 | 80 | 115 | 0.0 | 0.0 | 0.00 | 0.01 | 0.00 | 78 | 1013.5 |
| 20260905050035 | 80 | 115 | 0.0 | 0.0 | 0.00 | 0.01 | 0.00 | 77 | 1013.4 |
| 20260905044529 | 79 | 115 | 0.0 | 0.0 | 0.00 | 0.01 | 0.01 | 78 | 1013.5 |
| 20260905043033 | 80 | 115 | 0.0 | 0.0 | 0.00 | 0.01 | 0.01 | 78 | 1013.4 |
| 20260905041517 | 80 | 115 | 0.0 | 0.0 | 0.00 | 0.01 | 0.01 | 80 | 1013.6 |
| 20260905040023 | 81 | 115 | 0.0 | 0.0 | 0.00 | 0.01 | 0.01 | 81 | 1013.7 |
| 20260905034537 | 81 | 115 | 0.0 | 0.0 | 0.00 | 0.01 | 0.01 | 81 | 1013.9 |
| 20260905033039 | 82 | 115 | 0.0 | 0.0 | 0.00 | 0.01 | 0.01 | 81 | 1013.7 |
| 20260905031539 | 82 | 115 | 0.0 | 0.0 | 0.00 | 0.01 | 0.01 | 81 | 1013.9 |
| 20260905030018 | 82 | 115 | 0.0 | 0.0 | 0.00 | 0.01 | 0.01 | 81 | 1013.8 |
| 20260905024523 | 82 | 115 | 0.0 | 0.0 | 0.00 | 0.01 | 0.01 | 81 | 1013.7 |
| 20260905023033 | 82 | 115 | 0.0 | 0.0 | 0.00 | 0.01 | 0.01 | 81 | 1013.6 |
| 20260905021513 | 82 | 115 | 0.0 | 0.0 | 0.00 | 0.01 | 0.01 | 81 | 1013.5 |
| 20260905020021 | 83 | 115 | 0.0 | 0.0 | 0.00 | 0.01 | 0.01 | 80 | 1013.2 |
| 20260905014523 | 84 | 115 | 0.0 | 0.0 | 0.01 | 0.01 | 0.01 | 79 | 1013.2 |
| 20260905013029 | 84 | 117 | 0.0 | 0.0 | 0.01 | 0.01 | 0.01 | 78 | 1013.1 |
| 20260905011533 | 84 | 117 | 0.0 | 0.0 | 0.01 | 0.01 | 0.01 | 78 | 1012.9 |
| 20260905010011 | 85 | 117 | 0.0 | 0.0 | 0.01 | 0.01 | 0.01 | 77 | 1012.9 |
| 20260905004519 | 85 | 106 | 0.0 | 0.0 | 0.00 | 0.00 | 0.00 | 76 | 1012.7 |
| 20260905003026 | 86 | 110 | 0.0 | 0.0 | 0.00 | 0.00 | 0.00 | 76 | 1012.5 |
| 20260905001530 | 86 | 89 | 0.0 | 0.0 | 0.00 | 0.00 | 0.00 | 75 | 1012.6 |
| 20260905000030 | 87 | 113 | 0.0 | 0.0 | 0.00 | 0.00 | 0.00 | 74 | 1012.5 |
| 20260904234530 | 88 | 112 | 0.0 | 0.0 | 0.00 | 0.00 | 0.00 | 72 | 1012.3 |
| 20260904233018 | 89 | 110 | 0.0 | 0.0 | 0.00 | 0.00 | 0.00 | 70 | 1012.4 |
| 20260904231528 | 89 | 115 | 0.0 | 0.0 | 0.00 | 0.00 | 0.00 | 68 | 1012.3 |
| 20260904230030 | 90 | 72 | 0.0 | 0.0 | 0.00 | 0.00 | 0.00 | 65 | 1012.4 |
| 20260904224536 | 91 | 79 | 0.0 | 0.0 | 0.00 | 0.00 | 0.00 | 64 | 1012.3 |
| 20260904223015 | 91 | 47 | 0.0 | 0.0 | 0.00 | 0.00 | 0.00 | 63 | 1012.4 |